Weather History for De Queen, AR

Change the Weather History Date:

Friday, May 11, 2012

  Actual Average Record
Temperature  
Mean Temperature 67 °F 68 °F  
Max Temperature 76 °F 80 °F 93 °F (1967)
Min Temperature 57 °F 57 °F 39 °F (1981)
Degree Days  
Heating Degree Days 0 1  
Month to date heating degree days 0 17  
Since 1 July heating degree days 2414 3038  
Cooling Degree Days 2 4  
Month to date cooling degree days 82 39  
Year to date cooling degree days 203 86  
Growing Degree Days 16 (Base 50)    
Moisture  
Dew Point 56 °F    
Average Humidity 75    
Maximum Humidity 93    
Minimum Humidity 57    
Precipitation  
Precipitation 0.01 in 0.19 in 3.38 in (1953)
Month to date precipitation 0.12 2.43  
Year to date precipitation 12.62 18.00  
Snow  
Snow 0.00 in - - ()
Month to date snowfall 0.0  
Since 1 July snowfall 2.3  
Snow Depth 0.00 in    
Sea Level Pressure  
Sea Level Pressure 29.95 in    
Wind  
Wind Speed 9 mph (ENE)    
Max Wind Speed 21 mph    
Max Gust Speed 28 mph    
Visibility 10 miles    
Events Rain    
T = Trace of Precipitation, MM = Missing Value Source: NWS Daily Summary

Daily Weather History Graph

Daily Weather History Graph

Search for Another Location

Airport:

Trip Planner

Search our weather history database for the weather conditions in past years. The results will help you decide how hot, cold, wet, or windy it might be!

Date:

Astronomy

May. 11, 2012 Rise Set
Actual Time 6:18 AM CDT 8:09 PM CDT
Civil Twilight 5:51 AM CDT 8:37 PM CDT
Nautical Twilight 5:18 AM CDT 9:10 PM CDT
Astronomical Twilight 4:42 AM CDT 9:45 PM CDT
Moon 12:51 AM CDT (5/11) 11:49 AM CDT (5/11)
Length of Visible Light 14h 45m
Length of Day
13h 50m
Waning Gibbous, 63% of the Moon is Illuminated
May 11
Waning Gibbous
May 12
Last Quarter
May 20
New
May 28
First Quarter
Jun 4
Full

Hourly Weather History & Observations

Time (CDT) Temp. Dew Point Humidity Pressure Visibility Wind Dir Wind Speed Gust Speed Precip Events Conditions
12:53 AM 57.0 °F 55.0 °F 93% 29.91 in 10.0 mi Calm Calm - N/A   Clear
1:53 AM 59.0 °F 55.0 °F 87% 29.90 in 10.0 mi NNE 3.5 mph - N/A   Clear
2:53 AM 62.1 °F 53.1 °F 72% 29.89 in 10.0 mi NE 8.1 mph - N/A   Clear
3:53 AM 63.0 °F 52.0 °F 67% 29.89 in 10.0 mi ENE 8.1 mph - N/A   Clear
4:53 AM 63.0 °F 52.0 °F 67% 29.89 in 10.0 mi NE 6.9 mph - N/A   Scattered Clouds
5:53 AM 63.0 °F 51.1 °F 65% 29.89 in 10.0 mi ENE 8.1 mph - N/A   Mostly Cloudy
6:53 AM 62.1 °F 52.0 °F 70% 29.89 in 10.0 mi NE 5.8 mph - N/A   Partly Cloudy
7:53 AM 63.0 °F 53.1 °F 70% 29.92 in 10.0 mi ENE 8.1 mph - N/A   Partly Cloudy
8:53 AM 63.0 °F 54.0 °F 72% 29.94 in 10.0 mi NE 6.9 mph - 0.00 in   Mostly Cloudy
9:53 AM 64.9 °F 55.0 °F 70% 29.95 in 10.0 mi ENE 10.4 mph - N/A   Partly Cloudy
10:53 AM 66.0 °F 55.9 °F 70% 29.97 in 10.0 mi NE 9.2 mph - N/A   Partly Cloudy
11:53 AM 68.0 °F 57.0 °F 68% 29.97 in 10.0 mi NE 9.2 mph - N/A   Mostly Cloudy
12:53 PM 69.1 °F 57.9 °F 68% 29.97 in 10.0 mi NE 8.1 mph - N/A   Mostly Cloudy
1:53 PM 73.0 °F 59.0 °F 61% 29.96 in 10.0 mi East 12.7 mph - N/A   Mostly Cloudy
2:53 PM 75.0 °F 59.0 °F 57% 29.95 in 10.0 mi ENE 16.1 mph 23.0 mph N/A   Partly Cloudy
3:53 PM 73.0 °F 57.9 °F 59% 29.94 in 10.0 mi East 10.4 mph 23.0 mph 0.00 in   Mostly Cloudy
4:53 PM 73.0 °F 60.1 °F 64% 29.93 in 10.0 mi East 9.2 mph - 0.00 in   Overcast
5:53 PM 72.0 °F 59.0 °F 64% 29.94 in 10.0 mi ENE 13.8 mph 19.6 mph N/A   Mostly Cloudy
6:53 PM 70.0 °F 55.9 °F 61% 29.96 in 10.0 mi East 12.7 mph - N/A   Mostly Cloudy
7:53 PM 68.0 °F 57.0 °F 68% 29.96 in 10.0 mi ENE 10.4 mph 17.3 mph N/A   Overcast
8:53 PM 68.0 °F 57.9 °F 70% 29.99 in 10.0 mi ENE 9.2 mph - N/A   Overcast
9:53 PM 66.0 °F 60.1 °F 81% 30.02 in 10.0 mi ENE 13.8 mph 20.7 mph 0.00 in Rain Light Rain
10:21 PM 64.4 °F 59.0 °F 83% 30.03 in 10.0 mi ENE 8.1 mph - 0.00 in   Overcast
10:53 PM 64.0 °F 57.9 °F 80% 30.02 in 10.0 mi NE 5.8 mph - 0.00 in   Overcast
11:53 PM 63.0 °F 57.0 °F 81% 30.05 in 8.0 mi East 4.6 mph - 0.00 in Rain Light Rain